Time,TemperatureF,DewpointF,PressureIn,WindDirection,WindDirectionDegrees,WindSpeedMPH,WindSpeedGustMPH,Humidity,HourlyPrecipIn,Conditions,Clouds,dailyrainin,SoftwareType,DateUTC
2013-08-26 00:00:00,64.7,57.7,30.21,NW,307,0.0,1.0,78,0.00,,---,0.00,VWS V14.01,2013-08-26 04:00:00,
2013-08-26 00:01:00,64.7,58.0,30.20,NW,307,0.0,0.0,79,0.00,,---,0.00,VWS V14.01,2013-08-26 04:01:00,
2013-08-26 00:02:00,64.7,58.0,30.20,NW,307,0.0,0.0,79,0.00,,---,0.00,VWS V14.01,2013-08-26 04:02:00,
2013-08-26 00:07:00,64.7,58.0,30.20,NW,307,0.0,1.0,79,0.00,,---,0.00,VWS V14.01,2013-08-26 04:07:00,
2013-08-26 00:12:00,64.7,57.7,30.20,NW,307,0.0,1.0,78,0.00,,---,0.00,VWS V14.01,2013-08-26 04:12:00,
2013-08-26 00:17:00,64.8,58.1,30.21,NW,307,0.0,1.0,79,0.00,,---,0.00,VWS V14.01,2013-08-26 04:17:00,
2013-08-26 00:22:00,64.7,57.7,30.21,NW,307,0.0,1.0,78,0.00,,---,0.00,VWS V14.01,2013-08-26 04:22:00,
2013-08-26 00:27:00,64.7,58.0,30.20,NW,307,0.0,1.0,79,0.00,,---,0.00,VWS V14.01,2013-08-26 04:27:00,
2013-08-26 00:30:00,64.7,57.7,30.20,NW,307,0.0,1.0,78,0.00,,---,0.00,VWS V14.01,2013-08-26 04:30:00,
2013-08-26 00:32:00,64.7,58.0,30.20,NW,307,0.0,0.0,79,0.00,,---,0.00,VWS V14.01,2013-08-26 04:32:00,
2013-08-26 00:37:00,64.5,57.8,30.20,NW,307,0.0,0.0,79,0.00,,---,0.00,VWS V14.01,2013-08-26 04:37:00,
2013-08-26 00:42:00,64.4,57.8,30.20,NW,307,0.0,0.0,79,0.00,,---,0.00,VWS V14.01,2013-08-26 04:42:00,
2013-08-26 00:47:00,64.2,57.6,30.20,NW,307,0.0,0.0,79,0.00,,---,0.00,VWS V14.01,2013-08-26 04:47:00,
2013-08-26 00:52:00,64.1,57.5,30.20,NW,307,0.0,0.0,79,0.00,,---,0.00,VWS V14.01,2013-08-26 04:52:00,
2013-08-26 00:57:00,64.1,57.8,30.19,NW,307,0.0,0.0,80,0.00,,---,0.00,VWS V14.01,2013-08-26 04:57:00,
2013-08-26 01:00:00,64.0,57.7,30.19,NW,307,0.0,0.0,80,0.00,,---,0.00,VWS V14.01,2013-08-26 05:00:00,
2013-08-26 01:02:00,64.0,58.1,30.19,NW,307,0.0,0.0,81,0.00,,---,0.00,VWS V14.01,2013-08-26 05:02:00,
2013-08-26 01:08:00,64.0,58.1,30.19,NW,307,0.0,0.0,81,0.00,,---,0.00,VWS V14.01,2013-08-26 05:08:00,
2013-08-26 01:13:00,64.1,57.8,30.19,NW,307,0.0,0.0,80,0.00,,---,0.00,VWS V14.01,2013-08-26 05:13:00,
2013-08-26 01:18:00,64.1,57.8,30.19,NW,307,0.0,0.0,80,0.00,,---,0.00,VWS V14.01,2013-08-26 05:18:00,
2013-08-26 01:23:00,64.2,57.6,30.19,NW,307,0.0,0.0,79,0.00,,---,0.00,VWS V14.01,2013-08-26 05:23:00,
2013-08-26 01:28:00,64.2,57.6,30.20,NW,307,0.0,0.0,79,0.00,,---,0.00,VWS V14.01,2013-08-26 05:28:00,
2013-08-26 01:30:00,64.3,58.0,30.19,NW,307,0.0,0.0,80,0.00,,---,0.00,VWS V14.01,2013-08-26 05:30:00,
2013-08-26 01:33:00,64.2,57.6,30.20,NW,307,0.0,0.0,79,0.00,,---,0.00,VWS V14.01,2013-08-26 05:33:00,
2013-08-26 01:38:00,64.2,57.6,30.20,NW,307,0.0,0.0,79,0.00,,---,0.00,VWS V14.01,2013-08-26 05:38:00,
2013-08-26 01:43:00,64.2,57.9,30.20,NW,307,0.0,1.0,80,0.00,,---,0.00,VWS V14.01,2013-08-26 05:43:00,
2013-08-26 01:48:00,64.1,57.5,30.20,NW,307,0.0,1.0,79,0.00,,---,0.00,VWS V14.01,2013-08-26 05:48:00,
2013-08-26 01:53:00,64.1,57.5,30.20,NW,307,0.0,1.0,79,0.00,,---,0.00,VWS V14.01,2013-08-26 05:53:00,
2013-08-26 01:58:00,64.1,57.5,30.20,NW,307,0.0,1.0,79,0.00,,---,0.00,VWS V14.01,2013-08-26 05:58:00,
2013-08-26 02:00:00,64.1,57.8,30.20,NW,307,0.0,1.0,80,0.00,,---,0.00,VWS V14.01,2013-08-26 06:00:00,
2013-08-26 02:03:00,64.1,57.5,30.20,NW,307,0.0,0.0,79,0.00,,---,0.00,VWS V14.01,2013-08-26 06:03:00,
2013-08-26 02:08:00,64.1,57.8,30.19,NW,307,0.0,0.0,80,0.00,,---,0.00,VWS V14.01,2013-08-26 06:08:00,
2013-08-26 02:13:00,64.0,57.7,30.19,NW,307,0.0,0.0,80,0.00,,---,0.00,VWS V14.01,2013-08-26 06:13:00,
2013-08-26 02:18:00,63.9,58.0,30.19,NW,307,0.0,0.0,81,0.00,,---,0.00,VWS V14.01,2013-08-26 06:18:00,
2013-08-26 02:23:00,63.8,57.9,30.18,NW,307,0.0,0.0,81,0.00,,---,0.00,VWS V14.01,2013-08-26 06:23:00,
2013-08-26 02:28:00,63.8,57.9,30.18,NW,307,0.0,0.0,81,0.00,,---,0.00,VWS V14.01,2013-08-26 06:28:00,
2013-08-26 02:30:00,63.8,57.9,30.18,NW,307,0.0,0.0,81,0.00,,---,0.00,VWS V14.01,2013-08-26 06:30:00,
2013-08-26 02:33:00,63.8,57.9,30.18,NW,307,0.0,0.0,81,0.00,,---,0.00,VWS V14.01,2013-08-26 06:33:00,
2013-08-26 02:38:00,63.8,57.9,30.18,NW,307,0.0,0.0,81,0.00,,---,0.00,VWS V14.01,2013-08-26 06:38:00,
2013-08-26 02:43:00,63.8,57.9,30.18,NW,307,0.0,0.0,81,0.00,,---,0.00,VWS V14.01,2013-08-26 06:43:00,
2013-08-26 02:48:00,63.8,57.9,30.18,NW,307,0.0,0.0,81,0.00,,---,0.00,VWS V14.01,2013-08-26 06:48:00,
2013-08-26 02:53:00,63.7,57.8,30.17,NW,307,0.0,0.0,81,0.00,,---,0.00,VWS V14.01,2013-08-26 06:53:00,
2013-08-26 02:58:00,63.6,57.7,30.17,NW,307,0.0,0.0,81,0.00,,---,0.00,VWS V14.01,2013-08-26 06:58:00,
2013-08-26 03:00:00,63.5,57.2,30.17,NW,307,0.0,0.0,80,0.00,,---,0.00,VWS V14.01,2013-08-26 07:00:00,
2013-08-26 03:03:00,63.5,57.6,30.16,NW,307,0.0,0.0,81,0.00,,---,0.00,VWS V14.01,2013-08-26 07:03:00,
2013-08-26 03:08:00,63.4,57.5,30.17,NW,307,0.0,0.0,81,0.00,,---,0.00,VWS V14.01,2013-08-26 07:08:00,
2013-08-26 03:13:00,63.3,57.4,30.17,NW,307,0.0,0.0,81,0.00,,---,0.00,VWS V14.01,2013-08-26 07:13:00,
2013-08-26 03:18:00,63.3,57.4,30.17,NW,307,0.0,0.0,81,0.00,,---,0.00,VWS V14.01,2013-08-26 07:18:00,
2013-08-26 03:23:00,63.4,57.8,30.16,NW,307,0.0,0.0,82,0.00,,---,0.00,VWS V14.01,2013-08-26 07:23:00,
2013-08-26 03:28:00,63.3,57.7,30.16,NW,307,0.0,0.0,82,0.00,,---,0.00,VWS V14.01,2013-08-26 07:28:00,
2013-08-26 03:30:00,63.3,57.4,30.16,NW,307,0.0,0.0,81,0.00,,---,0.00,VWS V14.01,2013-08-26 07:30:00,
2013-08-26 03:33:00,63.3,57.4,30.16,NW,307,0.0,0.0,81,0.00,,---,0.00,VWS V14.01,2013-08-26 07:33:00,
2013-08-26 03:38:00,63.3,57.4,30.16,NW,307,0.0,0.0,81,0.00,,---,0.00,VWS V14.01,2013-08-26 07:38:00,
2013-08-26 03:43:00,63.4,57.5,30.16,NW,307,0.0,1.0,81,0.00,,---,0.00,VWS V14.01,2013-08-26 07:43:00,
2013-08-26 03:48:00,63.4,57.1,30.15,NW,307,0.0,1.0,80,0.00,,---,0.00,VWS V14.01,2013-08-26 07:48:00,
2013-08-26 03:53:00,63.4,57.5,30.15,NW,307,0.0,1.0,81,0.00,,---,0.00,VWS V14.01,2013-08-26 07:53:00,
2013-08-26 03:58:00,63.4,57.5,30.15,NW,307,0.0,1.0,81,0.00,,---,0.00,VWS V14.01,2013-08-26 07:58:00,
2013-08-26 04:00:00,63.3,57.4,30.15,NW,307,0.0,1.0,81,0.00,,---,0.00,VWS V14.01,2013-08-26 08:00:00,
2013-08-26 04:03:00,63.3,57.4,30.15,NW,307,0.0,0.0,81,0.00,,---,0.00,VWS V14.01,2013-08-26 08:03:00,
2013-08-26 04:08:00,63.2,57.6,30.15,NW,307,0.0,0.0,82,0.00,,---,0.00,VWS V14.01,2013-08-26 08:08:00,
2013-08-26 04:14:00,63.2,57.6,30.15,NW,307,0.0,0.0,82,0.00,,---,0.00,VWS V14.01,2013-08-26 08:14:00,
2013-08-26 04:19:00,63.1,57.9,30.15,NW,307,0.0,0.0,83,0.00,,---,0.00,VWS V14.01,2013-08-26 08:19:00,
2013-08-26 04:24:00,63.1,57.5,30.15,NW,307,0.0,0.0,82,0.00,,---,0.00,VWS V14.01,2013-08-26 08:24:00,
2013-08-26 04:29:00,63.1,57.5,30.15,NW,307,0.0,0.0,82,0.00,,---,0.00,VWS V14.01,2013-08-26 08:29:00,
2013-08-26 04:30:00,63.1,57.5,30.15,NW,307,0.0,0.0,82,0.00,,---,0.00,VWS V14.01,2013-08-26 08:30:00,
2013-08-26 04:34:00,63.1,57.9,30.15,NW,307,0.0,0.0,83,0.00,,---,0.00,VWS V14.01,2013-08-26 08:34:00,
2013-08-26 04:39:00,63.1,57.9,30.15,NW,307,0.0,0.0,83,0.00,,---,0.00,VWS V14.01,2013-08-26 08:39:00,
2013-08-26 04:44:00,63.0,57.8,30.15,NW,307,0.0,0.0,83,0.00,,---,0.00,VWS V14.01,2013-08-26 08:44:00,
2013-08-26 04:49:00,63.0,57.8,30.15,NW,307,0.0,0.0,83,0.00,,---,0.00,VWS V14.01,2013-08-26 08:49:00,
2013-08-26 04:54:00,62.9,57.7,30.15,NW,307,0.0,0.0,83,0.00,,---,0.00,VWS V14.01,2013-08-26 08:54:00,
2013-08-26 05:00:00,62.9,57.7,30.15,NW,307,0.0,0.0,83,0.00,,---,0.00,VWS V14.01,2013-08-26 09:00:00,
2013-08-26 05:05:00,62.9,58.0,30.15,NW,307,0.0,0.0,84,0.00,,---,0.00,VWS V14.01,2013-08-26 09:05:00,
2013-08-26 05:10:00,62.9,57.7,30.15,NW,307,0.0,0.0,83,0.00,,---,0.00,VWS V14.01,2013-08-26 09:10:00,
2013-08-26 05:15:00,62.8,57.6,30.15,NW,307,0.0,0.0,83,0.00,,---,0.00,VWS V14.01,2013-08-26 09:15:00,
2013-08-26 05:20:00,62.9,57.7,30.15,NW,307,0.0,0.0,83,0.00,,---,0.00,VWS V14.01,2013-08-26 09:20:00,
2013-08-26 05:25:00,62.9,58.0,30.15,NW,307,0.0,0.0,84,0.00,,---,0.00,VWS V14.01,2013-08-26 09:25:00,
2013-08-26 05:30:00,62.9,58.0,30.15,NW,307,0.0,0.0,84,0.00,,---,0.00,VWS V14.01,2013-08-26 09:30:00,
2013-08-26 05:35:00,62.8,57.6,30.15,NW,307,0.0,0.0,83,0.00,,---,0.00,VWS V14.01,2013-08-26 09:35:00,
2013-08-26 05:40:00,62.8,57.9,30.15,NW,307,0.0,0.0,84,0.00,,---,0.00,VWS V14.01,2013-08-26 09:40:00,
2013-08-26 05:45:00,62.6,57.4,30.15,NW,307,0.0,0.0,83,0.00,,---,0.00,VWS V14.01,2013-08-26 09:45:00,
2013-08-26 05:50:00,62.5,57.6,30.15,NW,307,0.0,0.0,84,0.00,,---,0.00,VWS V14.01,2013-08-26 09:50:00,
2013-08-26 05:56:00,62.4,57.5,30.15,NW,307,0.0,0.0,84,0.00,,---,0.00,VWS V14.01,2013-08-26 09:56:00,
2013-08-26 06:00:00,62.3,57.4,30.15,NW,307,0.0,0.0,84,0.00,,---,0.00,VWS V14.01,2013-08-26 10:00:00,
2013-08-26 06:01:00,62.3,57.4,30.15,NW,307,0.0,0.0,84,0.00,,---,0.00,VWS V14.01,2013-08-26 10:01:00,
2013-08-26 06:06:00,62.3,57.4,30.15,NW,307,0.0,0.0,84,0.00,,---,0.00,VWS V14.01,2013-08-26 10:06:00,
2013-08-26 06:11:00,62.3,57.1,30.15,NW,307,0.0,0.0,83,0.00,,---,0.00,VWS V14.01,2013-08-26 10:11:00,
2013-08-26 06:16:00,62.5,57.3,30.15,NW,307,0.0,0.0,83,0.00,,---,0.00,VWS V14.01,2013-08-26 10:16:00,
2013-08-26 06:21:00,62.6,57.4,30.15,NW,307,0.0,0.0,83,0.00,,---,0.00,VWS V14.01,2013-08-26 10:21:00,
2013-08-26 06:26:00,62.6,57.4,30.16,NW,307,0.0,0.0,83,0.00,,---,0.00,VWS V14.01,2013-08-26 10:26:00,
2013-08-26 06:30:00,62.7,57.5,30.16,NW,307,0.0,0.0,83,0.00,,---,0.00,VWS V14.01,2013-08-26 10:30:00,
2013-08-26 06:31:00,62.7,57.5,30.16,NW,307,1.0,1.0,83,0.00,,---,0.00,VWS V14.01,2013-08-26 10:31:00,
2013-08-26 06:36:00,62.7,57.5,30.16,NW,307,0.0,1.0,83,0.00,,---,0.00,VWS V14.01,2013-08-26 10:36:00,
2013-08-26 06:42:00,62.7,57.5,30.15,NW,307,0.0,1.0,83,0.00,,---,0.00,VWS V14.01,2013-08-26 10:42:00,
2013-08-26 06:47:00,62.7,57.5,30.15,NW,307,0.0,1.0,83,0.00,,---,0.00,VWS V14.01,2013-08-26 10:47:00,
2013-08-26 06:52:00,62.7,57.5,30.15,NW,307,0.0,1.0,83,0.00,,---,0.00,VWS V14.01,2013-08-26 10:52:00,
2013-08-26 06:57:00,62.7,57.5,30.15,NW,307,0.0,1.0,83,0.00,,---,0.00,VWS V14.01,2013-08-26 10:57:00,
2013-08-26 07:00:00,62.7,57.5,30.15,NW,307,0.0,1.0,83,0.00,,---,0.00,VWS V14.01,2013-08-26 11:00:00,
2013-08-26 07:02:00,62.7,57.5,30.15,NW,307,0.0,0.0,83,0.00,,---,0.00,VWS V14.01,2013-08-26 11:02:00,
2013-08-26 07:07:00,62.6,57.4,30.15,NW,307,0.0,0.0,83,0.00,,---,0.00,VWS V14.01,2013-08-26 11:07:00,
2013-08-26 07:12:00,62.7,57.8,30.15,NW,307,0.0,0.0,84,0.00,,---,0.00,VWS V14.01,2013-08-26 11:12:00,
2013-08-26 07:17:00,62.7,57.5,30.15,NW,307,0.0,0.0,83,0.00,,---,0.00,VWS V14.01,2013-08-26 11:17:00,
2013-08-26 07:22:00,62.7,57.5,30.15,NW,307,0.0,0.0,83,0.00,,---,0.00,VWS V14.01,2013-08-26 11:22:00,
2013-08-26 07:28:00,62.7,57.8,30.15,NW,307,0.0,0.0,84,0.00,,---,0.00,VWS V14.01,2013-08-26 11:28:00,
2013-08-26 07:30:00,62.7,57.8,30.15,NW,307,0.0,1.0,84,0.00,,---,0.00,VWS V14.01,2013-08-26 11:30:00,
2013-08-26 07:33:00,62.8,57.9,30.15,NW,307,0.0,0.0,84,0.00,,---,0.00,VWS V14.01,2013-08-26 11:33:00,
2013-08-26 07:38:00,62.7,57.8,30.15,NW,307,0.0,0.0,84,0.00,,---,0.00,VWS V14.01,2013-08-26 11:38:00,
2013-08-26 07:43:00,62.7,57.8,30.15,NW,307,0.0,0.0,84,0.00,,---,0.00,VWS V14.01,2013-08-26 11:43:00,
2013-08-26 07:48:00,62.7,57.8,30.14,NW,307,0.0,0.0,84,0.00,,---,0.00,VWS V14.01,2013-08-26 11:48:00,
2013-08-26 07:53:00,62.7,57.8,30.14,NW,307,0.0,0.0,84,0.00,,---,0.00,VWS V14.01,2013-08-26 11:53:00,
2013-08-26 07:58:00,62.7,57.8,30.14,NW,307,0.0,0.0,84,0.00,,---,0.00,VWS V14.01,2013-08-26 11:58:00,
2013-08-26 08:00:00,62.7,57.8,30.14,NW,307,0.0,1.0,84,0.00,,---,0.00,VWS V14.01,2013-08-26 12:00:00,
2013-08-26 08:03:00,62.7,58.1,30.14,NW,307,0.0,1.0,85,0.00,,---,0.00,VWS V14.01,2013-08-26 12:03:00,
2013-08-26 08:08:00,62.8,57.9,30.14,NW,307,0.0,1.0,84,0.00,,---,0.00,VWS V14.01,2013-08-26 12:08:00,
2013-08-26 08:14:00,62.9,58.0,30.14,NW,307,0.0,1.0,84,0.00,,---,0.00,VWS V14.01,2013-08-26 12:14:00,
2013-08-26 08:19:00,62.8,58.2,30.14,NW,307,0.0,1.0,85,0.00,,---,0.00,VWS V14.01,2013-08-26 12:19:00,
2013-08-26 08:24:00,62.8,58.2,30.14,NW,307,0.0,1.0,85,0.00,,---,0.00,VWS V14.01,2013-08-26 12:24:00,
2013-08-26 08:29:00,62.7,58.1,30.14,NW,307,0.0,1.0,85,0.00,,---,0.00,VWS V14.01,2013-08-26 12:29:00,
2013-08-26 08:30:00,62.6,58.0,30.15,NW,307,0.0,1.0,85,0.00,,---,0.00,VWS V14.01,2013-08-26 12:30:00,
2013-08-26 08:34:00,62.7,58.5,30.15,NW,307,0.0,1.0,86,0.00,,---,0.00,VWS V14.01,2013-08-26 12:34:00,
2013-08-26 08:39:00,62.6,58.4,30.15,NW,307,0.0,1.0,86,0.00,,---,0.00,VWS V14.01,2013-08-26 12:39:00,
2013-08-26 08:44:00,62.6,58.4,30.14,NW,307,0.0,1.0,86,0.00,,---,0.00,VWS V14.01,2013-08-26 12:44:00,
2013-08-26 08:49:00,62.6,58.7,30.15,NW,307,0.0,1.0,87,0.00,,---,0.00,VWS V14.01,2013-08-26 12:49:00,
2013-08-26 08:54:00,62.6,58.4,30.14,NW,307,0.0,1.0,86,0.00,,---,0.00,VWS V14.01,2013-08-26 12:54:00,
2013-08-26 08:59:00,62.7,58.8,30.14,NW,307,0.0,1.0,87,0.00,,---,0.00,VWS V14.01,2013-08-26 12:59:00,
2013-08-26 09:00:00,62.7,58.8,30.14,NW,307,0.0,1.0,87,0.00,,---,0.00,VWS V14.01,2013-08-26 13:00:00,
2013-08-26 09:05:00,63.1,58.8,30.13,NW,307,0.0,1.0,86,0.00,,---,0.00,VWS V14.01,2013-08-26 13:05:00,
2013-08-26 09:10:00,63.3,59.0,30.13,NW,307,0.0,1.0,86,0.00,,---,0.00,VWS V14.01,2013-08-26 13:10:00,
2013-08-26 09:15:00,63.6,59.3,30.13,NW,307,0.0,1.0,86,0.00,,---,0.00,VWS V14.01,2013-08-26 13:15:00,
2013-08-26 09:20:00,63.9,59.3,30.13,NW,307,0.0,1.0,85,0.00,,---,0.00,VWS V14.01,2013-08-26 13:20:00,
2013-08-26 09:25:00,64.1,59.8,30.13,NW,307,1.0,1.0,86,0.00,,---,0.00,VWS V14.01,2013-08-26 13:25:00,
2013-08-26 09:30:00,64.3,60.0,30.13,NW,307,0.0,1.0,86,0.00,,---,0.00,VWS V14.01,2013-08-26 13:30:00,
2013-08-26 09:35:00,64.5,60.2,30.12,NW,307,0.0,1.0,86,0.00,,---,0.00,VWS V14.01,2013-08-26 13:35:00,
2013-08-26 09:40:00,64.7,60.4,30.12,NW,307,0.0,1.0,86,0.00,,---,0.00,VWS V14.01,2013-08-26 13:40:00,
2013-08-26 09:45:00,64.9,60.6,30.12,NW,307,0.0,1.0,86,0.00,,---,0.00,VWS V14.01,2013-08-26 13:45:00,
2013-08-26 09:51:00,65.5,61.2,30.12,NW,307,0.0,1.0,86,0.00,,---,0.00,VWS V14.01,2013-08-26 13:51:00,
2013-08-26 09:56:00,65.9,61.3,30.12,NW,307,0.0,2.0,85,0.00,,---,0.00,VWS V14.01,2013-08-26 13:56:00,
2013-08-26 10:00:00,66.1,61.1,30.12,NW,306,0.0,3.0,84,0.00,,---,0.00,VWS V14.01,2013-08-26 14:00:00,
2013-08-26 10:01:00,66.1,61.1,30.12,NW,306,0.0,0.0,84,0.00,,---,0.00,VWS V14.01,2013-08-26 14:01:00,
2013-08-26 10:06:00,66.1,61.5,30.12,NW,306,0.0,1.0,85,0.00,,---,0.00,VWS V14.01,2013-08-26 14:06:00,
2013-08-26 10:11:00,66.2,61.6,30.12,NW,306,0.0,1.0,85,0.00,,---,0.00,VWS V14.01,2013-08-26 14:11:00,
2013-08-26 10:16:00,66.2,61.6,30.13,NW,306,0.0,2.0,85,0.00,,---,0.00,VWS V14.01,2013-08-26 14:16:00,
2013-08-26 10:21:00,66.1,61.5,30.13,NW,306,0.0,2.0,85,0.00,,---,0.00,VWS V14.01,2013-08-26 14:21:00,
2013-08-26 10:26:00,66.2,61.9,30.12,NW,306,0.0,2.0,86,0.00,,---,0.00,VWS V14.01,2013-08-26 14:26:00,
2013-08-26 10:30:00,66.4,62.1,30.12,NW,306,0.0,2.0,86,0.00,,---,0.00,VWS V14.01,2013-08-26 14:30:00,
2013-08-26 10:31:00,66.4,62.1,30.12,NW,306,0.0,1.0,86,0.00,,---,0.00,VWS V14.01,2013-08-26 14:31:00,
2013-08-26 10:36:00,66.6,62.3,30.12,NW,306,0.0,1.0,86,0.00,,---,0.00,VWS V14.01,2013-08-26 14:36:00,
2013-08-26 10:42:00,66.8,62.5,30.12,NW,306,0.0,1.0,86,0.00,,---,0.00,VWS V14.01,2013-08-26 14:42:00,
2013-08-26 10:47:00,67.1,63.1,30.12,NW,306,0.0,1.0,87,0.00,,---,0.00,VWS V14.01,2013-08-26 14:47:00,
2013-08-26 10:52:00,67.5,63.2,30.11,NW,306,0.0,1.0,86,0.00,,---,0.00,VWS V14.01,2013-08-26 14:52:00,
2013-08-26 10:57:00,67.9,63.2,30.11,NW,306,0.0,2.0,85,0.00,,---,0.00,VWS V14.01,2013-08-26 14:57:00,
2013-08-26 11:00:00,68.0,63.0,30.11,NW,306,0.0,2.0,84,0.00,,---,0.00,VWS V14.01,2013-08-26 15:00:00,
2013-08-26 11:02:00,68.1,63.1,30.11,NW,306,0.0,0.0,84,0.00,,---,0.00,VWS V14.01,2013-08-26 15:02:00,
2013-08-26 11:07:00,68.4,63.4,30.11,NW,306,0.0,1.0,84,0.00,,---,0.00,VWS V14.01,2013-08-26 15:07:00,
2013-08-26 11:12:00,68.7,63.7,30.10,NW,306,0.0,1.0,84,0.00,,---,0.00,VWS V14.01,2013-08-26 15:12:00,
2013-08-26 11:17:00,69.1,63.7,30.10,NW,307,0.0,2.0,83,0.00,,---,0.00,VWS V14.01,2013-08-26 15:17:00,
2013-08-26 11:22:00,69.4,64.0,30.09,NW,308,0.0,2.0,83,0.00,,---,0.00,VWS V14.01,2013-08-26 15:22:00,
2013-08-26 11:28:00,69.8,64.4,30.09,NW,307,2.0,2.0,83,0.00,,---,0.00,VWS V14.01,2013-08-26 15:28:00,
2013-08-26 11:30:00,70.1,64.4,30.09,NW,307,2.0,2.0,82,0.00,,---,0.00,VWS V14.01,2013-08-26 15:30:00,
2013-08-26 11:33:00,70.2,64.4,30.09,NW,307,0.0,3.0,82,0.00,,---,0.00,VWS V14.01,2013-08-26 15:33:00,
2013-08-26 11:38:00,70.2,64.4,30.09,NW,307,0.0,3.0,82,0.00,,---,0.00,VWS V14.01,2013-08-26 15:38:00,
2013-08-26 11:43:00,70.3,64.9,30.09,NW,307,0.0,3.0,83,0.00,,---,0.00,VWS V14.01,2013-08-26 15:43:00,
2013-08-26 11:48:00,70.2,64.8,30.09,NW,307,0.0,3.0,83,0.00,,---,0.00,VWS V14.01,2013-08-26 15:48:00,
2013-08-26 11:53:00,70.0,64.6,30.08,NW,307,0.0,3.0,83,0.00,,---,0.00,VWS V14.01,2013-08-26 15:53:00,
2013-08-26 11:58:00,70.0,64.9,30.08,NW,307,0.0,3.0,84,0.00,,---,0.00,VWS V14.01,2013-08-26 15:58:00,
2013-08-26 12:00:00,70.0,64.9,30.08,NW,307,0.0,3.0,84,0.00,,---,0.00,VWS V14.01,2013-08-26 16:00:00,
2013-08-26 12:03:00,70.1,65.1,30.08,NW,307,0.0,0.0,84,0.00,,---,0.00,VWS V14.01,2013-08-26 16:03:00,
2013-08-26 12:08:00,70.7,65.6,30.08,NW,307,0.0,0.0,84,0.00,,---,0.00,VWS V14.01,2013-08-26 16:08:00,
2013-08-26 12:13:00,71.0,65.6,30.08,NW,307,0.0,2.0,83,0.00,,---,0.00,VWS V14.01,2013-08-26 16:13:00,
2013-08-26 12:19:00,70.8,65.4,30.08,NW,307,0.0,2.0,83,0.00,,---,0.00,VWS V14.01,2013-08-26 16:19:00,
2013-08-26 12:24:00,70.6,65.5,30.08,NW,307,0.0,2.0,84,0.00,,---,0.00,VWS V14.01,2013-08-26 16:24:00,
2013-08-26 12:29:00,70.4,65.7,30.08,NW,307,0.0,2.0,85,0.00,,---,0.00,VWS V14.01,2013-08-26 16:29:00,
2013-08-26 12:30:00,70.4,65.7,30.08,NW,307,0.0,2.0,85,0.00,,---,0.00,VWS V14.01,2013-08-26 16:30:00,
2013-08-26 12:34:00,70.3,65.6,30.08,NW,307,0.0,1.0,85,0.00,,---,0.00,VWS V14.01,2013-08-26 16:34:00,
2013-08-26 12:39:00,70.7,66.0,30.07,NW,307,0.0,1.0,85,0.00,,---,0.00,VWS V14.01,2013-08-26 16:39:00,
2013-08-26 12:44:00,71.5,66.4,30.07,NW,307,0.0,1.0,84,0.00,,---,0.00,VWS V14.01,2013-08-26 16:44:00,
2013-08-26 12:49:00,72.2,66.8,30.07,NW,307,0.0,1.0,83,0.00,,---,0.00,VWS V14.01,2013-08-26 16:49:00,
2013-08-26 12:54:00,73.0,66.8,30.06,NW,307,0.0,1.0,81,0.00,,---,0.00,VWS V14.01,2013-08-26 16:54:00,
2013-08-26 12:59:00,73.7,67.5,30.06,NW,307,0.0,1.0,81,0.00,,---,0.00,VWS V14.01,2013-08-26 16:59:00,
2013-08-26 13:00:00,73.8,67.6,30.06,NW,307,0.0,1.0,81,0.00,,---,0.00,VWS V14.01,2013-08-26 17:00:00,
2013-08-26 13:05:00,74.4,67.1,30.06,NW,307,2.0,2.0,78,0.00,,---,0.00,VWS V14.01,2013-08-26 17:05:00,
2013-08-26 13:10:00,74.5,67.2,30.05,NW,307,0.0,3.0,78,0.00,,---,0.00,VWS V14.01,2013-08-26 17:10:00,
2013-08-26 13:15:00,74.9,67.6,30.05,NW,307,0.0,3.0,78,0.00,,---,0.00,VWS V14.01,2013-08-26 17:15:00,
2013-08-26 13:20:00,75.1,67.8,30.05,NW,307,0.0,3.0,78,0.00,,---,0.00,VWS V14.01,2013-08-26 17:20:00,
2013-08-26 13:25:00,75.1,67.4,30.05,WSW,258,0.0,3.0,77,0.00,,---,0.00,VWS V14.01,2013-08-26 17:25:00,
2013-08-26 13:30:00,75.4,67.7,30.05,South,188,0.0,3.0,77,0.00,,---,0.00,VWS V14.01,2013-08-26 17:30:00,
2013-08-26 13:35:00,75.6,67.5,30.04,SW,215,0.0,1.0,76,0.00,,---,0.00,VWS V14.01,2013-08-26 17:35:00,
2013-08-26 13:40:00,75.6,67.5,30.04,WSW,238,0.0,1.0,76,0.00,,---,0.00,VWS V14.01,2013-08-26 17:40:00,
2013-08-26 13:45:00,75.7,67.2,30.04,SW,232,1.0,3.0,75,0.00,,---,0.00,VWS V14.01,2013-08-26 17:45:00,
2013-08-26 13:50:00,75.4,68.1,30.03,SW,232,0.0,3.0,78,0.00,,---,0.00,VWS V14.01,2013-08-26 17:50:00,
2013-08-26 13:56:00,75.0,67.3,30.04,WNW,294,0.0,3.0,77,0.00,,---,0.00,VWS V14.01,2013-08-26 17:56:00,
2013-08-26 14:00:00,74.5,67.6,30.03,WNW,294,0.0,3.0,79,0.00,,---,0.00,VWS V14.01,2013-08-26 18:00:00,
2013-08-26 14:01:00,74.5,67.6,30.03,WNW,294,0.0,0.0,79,0.00,,---,0.00,VWS V14.01,2013-08-26 18:01:00,
2013-08-26 14:06:00,74.1,67.2,30.03,WNW,294,0.0,1.0,79,0.00,,---,0.00,VWS V14.01,2013-08-26 18:06:00,
2013-08-26 14:11:00,73.8,66.9,30.02,West,270,0.0,1.0,79,0.00,,---,0.00,VWS V14.01,2013-08-26 18:11:00,
2013-08-26 14:16:00,73.4,66.9,30.02,West,270,0.0,1.0,80,0.00,,---,0.00,VWS V14.01,2013-08-26 18:16:00,
2013-08-26 14:21:00,73.1,66.9,30.02,West,270,0.0,1.0,81,0.00,,---,0.00,VWS V14.01,2013-08-26 18:21:00,
2013-08-26 14:26:00,72.9,67.1,30.01,West,270,0.0,1.0,82,0.00,,---,0.00,VWS V14.01,2013-08-26 18:26:00,
2013-08-26 14:30:00,72.8,66.6,30.00,West,277,0.0,1.0,81,0.00,,---,0.00,VWS V14.01,2013-08-26 18:30:00,
2013-08-26 14:31:00,72.8,66.6,30.00,West,277,0.0,0.0,81,0.00,,---,0.00,VWS V14.01,2013-08-26 18:31:00,
2013-08-26 14:36:00,72.6,66.8,30.00,West,277,0.0,0.0,82,0.00,,---,0.00,VWS V14.01,2013-08-26 18:36:00,
2013-08-26 14:41:00,72.5,67.1,29.99,West,277,0.0,0.0,83,0.00,,---,0.00,VWS V14.01,2013-08-26 18:41:00,
2013-08-26 14:46:00,72.4,67.3,29.99,West,277,0.0,0.0,84,0.00,,---,0.00,VWS V14.01,2013-08-26 18:46:00,
2013-08-26 14:52:00,72.3,67.2,29.99,West,277,0.0,0.0,84,0.00,,---,0.00,VWS V14.01,2013-08-26 18:52:00,
2013-08-26 14:57:00,72.2,67.1,29.99,West,277,0.0,0.0,84,0.00,,---,0.00,VWS V14.01,2013-08-26 18:57:00,
2013-08-26 15:00:00,72.2,67.1,29.99,West,277,0.0,0.0,84,0.00,,---,0.00,VWS V14.01,2013-08-26 19:00:00,
2013-08-26 15:02:00,72.1,67.0,30.00,West,277,0.0,0.0,84,0.00,,---,0.00,VWS V14.01,2013-08-26 19:02:00,
2013-08-26 15:07:00,72.1,67.0,30.00,West,277,0.0,1.0,84,0.00,,---,0.00,VWS V14.01,2013-08-26 19:07:00,
2013-08-26 15:12:00,72.1,67.3,30.00,West,277,0.0,1.0,85,0.00,,---,0.00,VWS V14.01,2013-08-26 19:12:00,
2013-08-26 15:17:00,72.1,67.3,30.00,West,277,0.0,1.0,85,0.00,,---,0.00,VWS V14.01,2013-08-26 19:17:00,
2013-08-26 15:22:00,72.1,67.7,29.99,West,277,0.0,1.0,86,0.00,,---,0.00,VWS V14.01,2013-08-26 19:22:00,
2013-08-26 15:27:00,72.1,67.7,29.99,West,277,0.0,1.0,86,0.00,,---,0.00,VWS V14.01,2013-08-26 19:27:00,
2013-08-26 15:30:00,72.2,67.8,29.99,West,277,0.0,1.0,86,0.00,,---,0.00,VWS V14.01,2013-08-26 19:30:00,
2013-08-26 15:32:00,72.2,67.8,29.99,West,277,0.0,0.0,86,0.00,,---,0.00,VWS V14.01,2013-08-26 19:32:00,
2013-08-26 15:38:00,72.6,68.2,29.99,West,277,0.0,0.0,86,0.00,,---,0.00,VWS V14.01,2013-08-26 19:38:00,
2013-08-26 15:43:00,72.9,68.1,29.98,West,277,0.0,0.0,85,0.00,,---,0.00,VWS V14.01,2013-08-26 19:43:00,
2013-08-26 15:48:00,73.2,68.4,29.98,West,277,0.0,0.0,85,0.00,,---,0.00,VWS V14.01,2013-08-26 19:48:00,
2013-08-26 15:53:00,73.6,68.5,29.97,West,277,0.0,0.0,84,0.00,,---,0.00,VWS V14.01,2013-08-26 19:53:00,
2013-08-26 15:58:00,74.2,69.4,29.97,West,265,0.0,0.0,85,0.00,,---,0.00,VWS V14.01,2013-08-26 19:58:00,
2013-08-26 16:00:00,74.4,69.2,29.97,West,265,0.0,0.0,84,0.00,,---,0.00,VWS V14.01,2013-08-26 20:00:00,
2013-08-26 16:03:00,74.9,69.4,29.97,West,265,0.0,0.0,83,0.00,,---,0.00,VWS V14.01,2013-08-26 20:03:00,
2013-08-26 16:08:00,75.4,69.5,29.96,West,265,0.0,0.0,82,0.00,,---,0.00,VWS V14.01,2013-08-26 20:08:00,
2013-08-26 16:13:00,75.9,70.0,29.97,West,265,0.0,1.0,82,0.00,,---,0.00,VWS V14.01,2013-08-26 20:13:00,
2013-08-26 16:18:00,76.7,70.1,29.96,West,265,0.0,1.0,80,0.00,,---,0.00,VWS V14.01,2013-08-26 20:18:00,
2013-08-26 16:24:00,77.0,70.4,29.96,West,265,0.0,1.0,80,0.00,,---,0.00,VWS V14.01,2013-08-26 20:24:00,
2013-08-26 16:29:00,77.0,70.0,29.96,West,265,0.0,2.0,79,0.00,,---,0.00,VWS V14.01,2013-08-26 20:29:00,
2013-08-26 16:30:00,77.1,70.5,29.96,West,265,2.0,2.0,80,0.00,,---,0.00,VWS V14.01,2013-08-26 20:30:00,
2013-08-26 16:34:00,77.1,70.1,29.95,West,265,0.0,2.0,79,0.00,,---,0.00,VWS V14.01,2013-08-26 20:34:00,
2013-08-26 16:39:00,77.1,70.5,29.96,West,265,0.0,2.0,80,0.00,,---,0.00,VWS V14.01,2013-08-26 20:39:00,
2013-08-26 16:44:00,76.9,70.3,29.96,West,265,0.0,2.0,80,0.00,,---,0.00,VWS V14.01,2013-08-26 20:44:00,
2013-08-26 16:49:00,76.7,70.1,29.95,West,265,0.0,2.0,80,0.00,,---,0.00,VWS V14.01,2013-08-26 20:49:00,
2013-08-26 16:54:00,76.6,70.3,29.95,West,265,0.0,2.0,81,0.00,,---,0.00,VWS V14.01,2013-08-26 20:54:00,
2013-08-26 16:59:00,76.4,70.5,29.96,West,265,0.0,2.0,82,0.00,,---,0.00,VWS V14.01,2013-08-26 20:59:00,
2013-08-26 17:00:00,76.4,70.5,29.96,West,265,0.0,2.0,82,0.00,,---,0.00,VWS V14.01,2013-08-26 21:00:00,
2013-08-26 17:04:00,76.5,70.2,29.95,West,265,0.0,1.0,81,0.00,,---,0.00,VWS V14.01,2013-08-26 21:04:00,
2013-08-26 17:09:00,76.8,70.5,29.95,West,265,0.0,1.0,81,0.00,,---,0.00,VWS V14.01,2013-08-26 21:09:00,
2013-08-26 17:15:00,76.9,70.3,29.95,West,265,0.0,1.0,80,0.00,,---,0.00,VWS V14.01,2013-08-26 21:15:00,
2013-08-26 17:20:00,77.0,70.4,29.95,West,265,0.0,1.0,80,0.00,,---,0.00,VWS V14.01,2013-08-26 21:20:00,
2013-08-26 17:25:00,77.0,70.7,29.95,West,265,0.0,1.0,81,0.00,,---,0.00,VWS V14.01,2013-08-26 21:25:00,
2013-08-26 17:30:00,76.9,70.6,29.95,West,265,0.0,1.0,81,0.00,,---,0.00,VWS V14.01,2013-08-26 21:30:00,
2013-08-26 17:35:00,76.8,70.5,29.95,West,265,0.0,0.0,81,0.00,,---,0.00,VWS V14.01,2013-08-26 21:35:00,
2013-08-26 17:40:00,76.5,70.6,29.95,West,265,0.0,0.0,82,0.00,,---,0.00,VWS V14.01,2013-08-26 21:40:00,
2013-08-26 17:45:00,76.3,70.4,29.95,West,265,0.0,0.0,82,0.00,,---,0.00,VWS V14.01,2013-08-26 21:45:00,
2013-08-26 17:50:00,76.1,70.6,29.95,West,265,0.0,0.0,83,0.00,,---,0.00,VWS V14.01,2013-08-26 21:50:00,
2013-08-26 17:56:00,75.9,70.4,29.94,West,265,0.0,0.0,83,0.00,,---,0.00,VWS V14.01,2013-08-26 21:56:00,
2013-08-26 18:00:00,75.8,70.3,29.94,West,265,0.0,0.0,83,0.00,,---,0.00,VWS V14.01,2013-08-26 22:00:00,
2013-08-26 18:01:00,75.8,70.3,29.94,West,265,0.0,0.0,83,0.00,,---,0.00,VWS V14.01,2013-08-26 22:01:00,
2013-08-26 18:06:00,75.7,70.5,29.94,West,265,0.0,0.0,84,0.00,,---,0.00,VWS V14.01,2013-08-26 22:06:00,
2013-08-26 18:10:00,75.6,70.4,29.94,West,265,0.0,0.0,84,0.00,,---,0.00,VWS V14.01,2013-08-26 22:10:00,
2013-08-26 18:15:00,75.5,70.3,29.94,West,265,0.0,0.0,84,0.00,,---,0.00,VWS V14.01,2013-08-26 22:15:00,
2013-08-26 18:20:00,75.3,70.1,29.94,West,265,0.0,0.0,84,0.00,,---,0.00,VWS V14.01,2013-08-26 22:20:00,
2013-08-26 18:25:00,75.1,69.9,29.94,West,265,0.0,0.0,84,0.00,,---,0.00,VWS V14.01,2013-08-26 22:25:00,
2013-08-26 18:30:00,75.0,69.8,29.94,West,265,0.0,0.0,84,0.00,,---,0.00,VWS V14.01,2013-08-26 22:30:00,
2013-08-26 18:35:00,74.8,69.7,29.94,West,265,0.0,0.0,84,0.00,,---,0.00,VWS V14.01,2013-08-26 22:35:00,
2013-08-26 18:40:00,74.6,69.4,29.94,West,265,0.0,0.0,84,0.00,,---,0.00,VWS V14.01,2013-08-26 22:40:00,
2013-08-26 18:45:00,74.4,69.6,29.94,West,265,0.0,0.0,85,0.00,,---,0.00,VWS V14.01,2013-08-26 22:45:00,
2013-08-26 18:50:00,74.3,69.5,29.94,West,265,0.0,0.0,85,0.00,,---,0.00,VWS V14.01,2013-08-26 22:50:00,
2013-08-26 18:55:00,74.1,69.3,29.94,West,265,0.0,0.0,85,0.00,,---,0.00,VWS V14.01,2013-08-26 22:55:00,
2013-08-26 19:00:00,73.9,69.4,29.94,West,265,0.0,0.0,86,0.00,,---,0.00,VWS V14.01,2013-08-26 23:00:00,
2013-08-26 19:05:00,73.8,69.3,29.94,West,265,0.0,0.0,86,0.00,,---,0.00,VWS V14.01,2013-08-26 23:05:00,
2013-08-26 19:10:00,73.7,69.3,29.94,West,265,0.0,0.0,86,0.00,,---,0.00,VWS V14.01,2013-08-26 23:10:00,
2013-08-26 19:15:00,73.6,69.2,29.94,West,265,0.0,0.0,86,0.00,,---,0.00,VWS V14.01,2013-08-26 23:15:00,
2013-08-26 19:20:00,73.5,69.1,29.94,West,265,0.0,0.0,86,0.00,,---,0.00,VWS V14.01,2013-08-26 23:20:00,
2013-08-26 19:25:00,73.4,69.3,29.94,West,265,0.0,0.0,87,0.00,,---,0.00,VWS V14.01,2013-08-26 23:25:00,
2013-08-26 19:30:00,73.3,69.2,29.94,West,265,0.0,0.0,87,0.00,,---,0.00,VWS V14.01,2013-08-26 23:30:00,
2013-08-26 19:35:00,73.2,69.1,29.94,West,265,0.0,0.0,87,0.00,,---,0.00,VWS V14.01,2013-08-26 23:35:00,
2013-08-26 19:40:00,73.2,69.1,29.93,West,265,0.0,0.0,87,0.00,,---,0.00,VWS V14.01,2013-08-26 23:40:00,
2013-08-26 19:45:00,73.1,69.0,29.93,West,265,0.0,0.0,87,0.00,,---,0.00,VWS V14.01,2013-08-26 23:45:00,
2013-08-26 19:50:00,73.2,68.8,29.93,West,265,0.0,0.0,86,0.00,,---,0.00,VWS V14.01,2013-08-26 23:50:00,
2013-08-26 19:55:00,73.2,68.8,29.93,West,265,0.0,0.0,86,0.00,,---,0.00,VWS V14.01,2013-08-26 23:55:00,
2013-08-26 20:00:00,73.2,68.8,29.93,West,265,0.0,0.0,86,0.00,,---,0.00,VWS V14.01,2013-08-27 00:00:00,
2013-08-26 20:05:00,73.3,68.5,29.93,West,265,0.0,0.0,85,0.00,,---,0.00,VWS V14.01,2013-08-27 00:05:00,
2013-08-26 20:10:00,73.4,68.6,29.93,West,265,0.0,0.0,85,0.00,,---,0.00,VWS V14.01,2013-08-27 00:10:00,
2013-08-26 20:15:00,73.6,68.8,29.94,West,265,0.0,0.0,85,0.00,,---,0.00,VWS V14.01,2013-08-27 00:15:00,
2013-08-26 20:20:00,73.7,68.6,29.94,West,265,0.0,0.0,84,0.00,,---,0.00,VWS V14.01,2013-08-27 00:20:00,
2013-08-26 20:25:00,73.8,68.7,29.95,West,265,0.0,0.0,84,0.00,,---,0.00,VWS V14.01,2013-08-27 00:25:00,
2013-08-26 20:30:00,73.9,68.8,29.94,West,265,0.0,0.0,84,0.00,,---,0.00,VWS V14.01,2013-08-27 00:30:00,
2013-08-26 20:35:00,73.9,68.8,29.94,West,265,0.0,0.0,84,0.00,,---,0.00,VWS V14.01,2013-08-27 00:35:00,
2013-08-26 20:40:00,73.9,68.8,29.94,West,265,0.0,0.0,84,0.00,,---,0.00,VWS V14.01,2013-08-27 00:40:00,
2013-08-26 20:45:00,73.9,68.8,29.95,West,265,0.0,0.0,84,0.00,,---,0.00,VWS V14.01,2013-08-27 00:45:00,
2013-08-26 20:50:00,73.8,68.7,29.95,West,265,0.0,0.0,84,0.00,,---,0.00,VWS V14.01,2013-08-27 00:50:00,
2013-08-26 20:55:00,73.8,69.0,29.95,West,265,0.0,0.0,85,0.00,,---,0.00,VWS V14.01,2013-08-27 00:55:00,
2013-08-26 21:00:00,73.7,68.9,29.94,West,265,0.0,0.0,85,0.00,,---,0.00,VWS V14.01,2013-08-27 01:00:00,
2013-08-26 21:05:00,73.6,68.8,29.94,West,265,0.0,0.0,85,0.00,,---,0.00,VWS V14.01,2013-08-27 01:05:00,
2013-08-26 21:10:00,73.5,68.7,29.94,West,265,0.0,0.0,85,0.00,,---,0.00,VWS V14.01,2013-08-27 01:10:00,
2013-08-26 21:15:00,73.4,69.0,29.94,West,265,0.0,0.0,86,0.00,,---,0.00,VWS V14.01,2013-08-27 01:15:00,
2013-08-26 21:20:00,73.3,68.9,29.94,West,265,0.0,0.0,86,0.00,,---,0.00,VWS V14.01,2013-08-27 01:20:00,
2013-08-26 21:25:00,73.3,68.9,29.94,West,265,0.0,0.0,86,0.00,,---,0.00,VWS V14.01,2013-08-27 01:25:00,
2013-08-26 21:30:00,73.2,68.8,29.94,West,265,0.0,0.0,86,0.00,,---,0.00,VWS V14.01,2013-08-27 01:30:00,
2013-08-26 21:35:00,73.1,68.7,29.93,West,265,0.0,0.0,86,0.00,,---,0.00,VWS V14.01,2013-08-27 01:35:00,
2013-08-26 21:40:00,73.1,68.7,29.93,West,265,0.0,0.0,86,0.00,,---,0.00,VWS V14.01,2013-08-27 01:40:00,
2013-08-26 21:45:00,72.8,69.0,29.93,West,265,0.0,0.0,88,0.01,,---,0.01,VWS V14.01,2013-08-27 01:45:00,
2013-08-26 21:50:00,72.3,69.2,29.93,West,265,0.0,0.0,90,0.01,,---,0.01,VWS V14.01,2013-08-27 01:50:00,
2013-08-26 21:55:00,71.8,69.0,29.93,West,265,0.0,0.0,91,0.01,,---,0.01,VWS V14.01,2013-08-27 01:55:00,
2013-08-26 22:00:00,71.3,68.9,29.93,West,265,0.0,0.0,92,0.01,,---,0.01,VWS V14.01,2013-08-27 02:00:00,
2013-08-26 22:05:00,70.8,68.7,29.93,West,265,0.0,0.0,93,0.02,,---,0.02,VWS V14.01,2013-08-27 02:05:00,
2013-08-26 22:10:00,70.4,68.3,29.93,West,265,0.0,0.0,93,0.02,,---,0.02,VWS V14.01,2013-08-27 02:10:00,
2013-08-26 22:15:00,70.1,68.3,29.93,West,265,0.0,0.0,94,0.02,,---,0.02,VWS V14.01,2013-08-27 02:15:00,
2013-08-26 22:20:00,70.0,68.2,29.92,West,265,0.0,1.0,94,0.02,,---,0.02,VWS V14.01,2013-08-27 02:20:00,
2013-08-26 22:25:00,69.8,68.3,29.92,West,265,0.0,1.0,95,0.02,,---,0.02,VWS V14.01,2013-08-27 02:25:00,
2013-08-26 22:30:00,69.7,68.2,29.92,West,265,0.0,1.0,95,0.02,,---,0.02,VWS V14.01,2013-08-27 02:30:00,
2013-08-26 22:35:00,69.6,68.1,29.92,West,265,0.0,0.0,95,0.02,,---,0.02,VWS V14.01,2013-08-27 02:35:00,
2013-08-26 22:40:00,69.4,68.2,29.92,West,265,0.0,0.0,96,0.02,,---,0.02,VWS V14.01,2013-08-27 02:40:00,
2013-08-26 22:45:00,69.4,68.2,29.92,West,265,0.0,0.0,96,0.03,,---,0.03,VWS V14.01,2013-08-27 02:45:00,
2013-08-26 22:50:00,69.3,68.1,29.92,West,265,0.0,0.0,96,0.03,,---,0.03,VWS V14.01,2013-08-27 02:50:00,
2013-08-26 22:55:00,69.2,68.0,29.92,West,265,0.0,0.0,96,0.03,,---,0.03,VWS V14.01,2013-08-27 02:55:00,
2013-08-26 23:00:00,69.1,68.2,29.91,West,265,0.0,0.0,97,0.02,,---,0.03,VWS V14.01,2013-08-27 03:00:00,
2013-08-26 23:05:00,69.0,68.1,29.91,West,265,0.0,0.0,97,0.02,,---,0.03,VWS V14.01,2013-08-27 03:05:00,
2013-08-26 23:10:00,69.0,68.1,29.90,West,265,0.0,0.0,97,0.02,,---,0.03,VWS V14.01,2013-08-27 03:10:00,
2013-08-26 23:15:00,68.9,68.0,29.90,West,265,0.0,0.0,97,0.02,,---,0.03,VWS V14.01,2013-08-27 03:15:00,
2013-08-26 23:20:00,68.9,68.0,29.90,West,265,0.0,0.0,97,0.02,,---,0.03,VWS V14.01,2013-08-27 03:20:00,
2013-08-26 23:25:00,68.8,67.9,29.90,West,265,0.0,0.0,97,0.02,,---,0.03,VWS V14.01,2013-08-27 03:25:00,
2013-08-26 23:30:00,68.8,67.9,29.90,West,265,0.0,0.0,97,0.02,,---,0.04,VWS V14.01,2013-08-27 03:30:00,
2013-08-26 23:35:00,68.8,67.9,29.90,West,265,0.0,0.0,97,0.02,,---,0.04,VWS V14.01,2013-08-27 03:35:00,
2013-08-26 23:40:00,68.7,68.1,29.90,West,265,0.0,0.0,98,0.02,,---,0.04,VWS V14.01,2013-08-27 03:40:00,
2013-08-26 23:45:00,68.6,68.0,29.90,West,265,0.0,0.0,98,0.03,,---,0.05,VWS V14.01,2013-08-27 03:45:00,
2013-08-26 23:50:00,68.5,67.9,29.90,West,265,0.0,0.0,98,0.03,,---,0.05,VWS V14.01,2013-08-27 03:50:00,
2013-08-26 23:55:00,68.4,67.8,29.90,West,265,0.0,0.0,98,0.03,,---,0.05,VWS V14.01,2013-08-27 03:55:00,